Location: Friedrichshafen
(47.6598°N, 9.4819°E)
Time: 23:13:10
(UTC+02:00)

ELECTRON R/B - Visible Passes

Search period start: 24 May 2018 00:00
Search period end: 03 June 2018 00:00
Orbit: 285 x 479 km, 82.9° (Epoch: 23 May)

Date Brightness Start Highest point End Pass type
(mag) Time Alt. Az. Time Alt. Az. Time Alt. Az.
24 May 4.3 21:46:35 10° N 21:49:00 84° W 21:51:27 10° S visible
25 May 7.3 22:23:31 10° NW 22:25:01 15° W 22:26:32 10° SW visible
27 May 7.2 22:02:31 10° NW 22:04:17 18° W 22:06:04 10° SW visible
